This is the latest recevied weather packets stored in our database for station/object KF0JHJ. If no packets are shown the sender has not sent any weather packets the latest 10 day(s).
| Time | Temp. | Humidity | Pressure | Rain* | Wind** | Luminosity | Snow |
|---|---|---|---|---|---|---|---|
| 1778123326 | 3.33° C | 65% | 1012.7 hPa | - | - | 0 W/m² | - |
| 1778123024 | 3.33° C | 65% | 1012.7 hPa | - | - | 0 W/m² | - |
| 1778122720 | 2.78° C | 65% | 1013 hPa | - | - | 0 W/m² | - |
| 1778122418 | 2.78° C | 65% | 1013.1 hPa | - | - | 0 W/m² | - |
| 1778122115 | 3.33° C | 64% | 1012.8 hPa | - | - | 0 W/m² | - |
| 1778121812 | 3.33° C | 63% | 1012.8 hPa | - | - | 0 W/m² | - |
| 1778121508 | 3.89° C | 62% | 1012.6 hPa | - | - | 0 W/m² | - |
| 1778121205 | 3.89° C | 62% | 1012.6 hPa | - | - | 0 W/m² | - |
| 1778120902 | 3.89° C | 62% | 1012.5 hPa | - | - | 0 W/m² | - |
| 1778120599 | 3.89° C | 62% | 1012.6 hPa | - | - | 0 W/m² | - |
| 1778120295 | 3.89° C | 61% | 1012.6 hPa | - | - | 0 W/m² | - |
| 1778119991 | 4.44° C | 60% | 1012.7 hPa | - | - | 0 W/m² | - |
| 1778119689 | 5° C | 59% | 1012.8 hPa | - | - | 0 W/m² | - |
| 1778119385 | 5° C | 58% | 1012.6 hPa | - | - | 0 W/m² | - |
| 1778119082 | 5.56° C | 58% | 1012.7 hPa | - | - | 0 W/m² | - |
| 1778118780 | 5.56° C | 57% | 1013 hPa | - | - | 0 W/m² | - |
| 1778118476 | 5.56° C | 56% | 1012.6 hPa | - | - | 0 W/m² | - |
| 1778118173 | 6.11° C | 56% | 1012.6 hPa | - | - | 0 W/m² | - |
| 1778117869 | 6.11° C | 55% | 1012.4 hPa | - | - | 0 W/m² | - |
| 1778117567 | 6.11° C | 55% | 1012.7 hPa | - | - | 0 W/m² | - |
| 1778117264 | 6.11° C | 54% | 1012.7 hPa | - | - | 0 W/m² | - |
| 1778116964 | 6.11° C | 54% | 1012.5 hPa | - | - | 0 W/m² | - |
| 1778116663 | 6.11° C | 54% | 1012.4 hPa | - | - | 0 W/m² | - |
| 1778116359 | 6.67° C | 53% | 1012.7 hPa | - | - | 2 W/m² | - |
| 1778116058 | 6.67° C | 53% | 1012.6 hPa | - | - | 5 W/m² | - |
* Rain since midnight (hover to see other rain measurements)
** Current wind speed in m/s (hover to see current wind gust speed)